Time,TemperatureF,DewpointF,PressureIn,WindDirection,WindDirectionDegrees,WindSpeedMPH,WindSpeedGustMPH,Humidity,HourlyPrecipIn,Conditions,Clouds,dailyrainin,SoftwareType,DateUTC
2013-08-29 00:00:00,76.7,70.4,29.87,SSE,160,0.0,0.0,81,0.00,,,0.00,Wunderground v.1.15,2013-08-29 05:00:00,
2013-08-29 00:05:00,76.5,70.2,29.87,SSE,161,0.0,0.0,81,0.00,,,0.00,Wunderground v.1.15,2013-08-29 05:05:00,
2013-08-29 00:15:00,76.3,70.4,29.87,SSE,152,0.0,0.0,82,0.00,,,0.00,Wunderground v.1.15,2013-08-29 05:15:00,
2013-08-29 00:20:00,76.1,70.6,29.87,SE,144,0.0,0.0,83,0.00,,,0.00,Wunderground v.1.15,2013-08-29 05:20:00,
2013-08-29 00:25:00,76.0,70.5,29.87,SSE,157,0.0,0.0,83,0.00,,,0.00,Wunderground v.1.15,2013-08-29 05:25:00,
2013-08-29 00:30:00,76.0,70.5,29.87,SSE,152,0.0,0.0,83,0.00,,,0.00,Wunderground v.1.15,2013-08-29 05:30:00,
2013-08-29 00:40:00,75.6,70.4,29.87,SSE,164,0.0,0.0,84,0.00,,,0.00,Wunderground v.1.15,2013-08-29 05:40:00,
2013-08-29 00:45:00,75.4,70.2,29.87,SE,140,0.0,0.0,84,0.00,,,0.00,Wunderground v.1.15,2013-08-29 05:45:00,
2013-08-29 00:50:00,75.4,70.6,29.87,SE,136,0.0,0.0,85,0.00,,,0.00,Wunderground v.1.15,2013-08-29 05:50:00,
2013-08-29 01:00:00,75.3,70.8,29.87,SSE,161,0.0,0.0,86,0.00,,,0.00,Wunderground v.1.15,2013-08-29 06:00:00,
2013-08-29 01:10:00,75.1,71.0,29.87,SSE,161,0.0,0.0,87,0.00,,,0.00,Wunderground v.1.15,2013-08-29 06:10:00,
2013-08-29 01:15:00,75.1,71.0,29.87,SSE,157,0.0,0.0,87,0.00,,,0.00,Wunderground v.1.15,2013-08-29 06:15:00,
2013-08-29 01:25:00,75.3,71.2,29.87,SSE,152,0.0,0.0,87,0.00,,,0.00,Wunderground v.1.15,2013-08-29 06:25:00,
2013-08-29 01:30:00,75.4,71.3,29.87,SSE,158,0.0,0.0,87,0.00,,,0.00,Wunderground v.1.15,2013-08-29 06:30:00,
2013-08-29 01:35:00,75.4,71.3,29.87,SSE,157,0.0,0.0,87,0.00,,,0.00,Wunderground v.1.15,2013-08-29 06:35:00,
2013-08-29 01:40:00,75.3,71.2,29.87,SSE,157,0.0,0.0,87,0.00,,,0.00,Wunderground v.1.15,2013-08-29 06:40:00,
2013-08-29 01:45:00,75.3,71.5,29.86,SE,138,0.0,0.0,88,0.00,,,0.00,Wunderground v.1.15,2013-08-29 06:45:00,
2013-08-29 01:50:00,75.3,71.5,29.86,SE,140,0.0,0.0,88,0.00,,,0.00,Wunderground v.1.15,2013-08-29 06:50:00,
2013-08-29 01:55:00,75.1,71.3,29.86,SE,127,0.0,0.0,88,0.00,,,0.00,Wunderground v.1.15,2013-08-29 06:55:00,
2013-08-29 02:00:00,75.1,71.6,29.86,SSE,147,0.0,0.0,89,0.00,,,0.00,Wunderground v.1.15,2013-08-29 07:00:00,
2013-08-29 02:10:00,75.1,71.6,29.86,SE,140,0.0,0.0,89,0.00,,,0.00,Wunderground v.1.15,2013-08-29 07:10:00,
2013-08-29 02:15:00,75.1,71.6,29.86,SSE,162,0.0,0.0,89,0.00,,,0.00,Wunderground v.1.15,2013-08-29 07:15:00,
2013-08-29 02:25:00,75.1,72.0,29.86,SE,130,0.0,0.0,90,0.00,,,0.00,Wunderground v.1.15,2013-08-29 07:25:00,
2013-08-29 02:30:00,75.1,72.0,29.85,SSE,155,0.0,0.0,90,0.00,,,0.00,Wunderground v.1.15,2013-08-29 07:30:00,
2013-08-29 02:35:00,74.9,72.1,29.85,SSE,158,0.0,0.0,91,0.00,,,0.00,Wunderground v.1.15,2013-08-29 07:35:00,
2013-08-29 02:40:00,74.9,72.1,29.85,SSE,158,0.0,0.0,91,0.00,,,0.00,Wunderground v.1.15,2013-08-29 07:40:00,
2013-08-29 02:45:00,74.7,71.9,29.85,SSE,158,0.0,0.0,91,0.00,,,0.00,Wunderground v.1.15,2013-08-29 07:45:00,
2013-08-29 02:50:00,74.6,71.8,29.85,SSE,158,0.0,0.0,91,0.00,,,0.00,Wunderground v.1.15,2013-08-29 07:50:00,
2013-08-29 03:00:00,74.6,72.1,29.85,SSE,161,0.0,0.0,92,0.00,,,0.00,Wunderground v.1.15,2013-08-29 08:00:00,
2013-08-29 03:05:00,74.6,72.1,29.85,SSE,161,0.0,0.0,92,0.00,,,0.00,Wunderground v.1.15,2013-08-29 08:05:00,
2013-08-29 03:10:00,74.6,72.4,29.85,SSE,161,0.0,0.0,93,0.00,,,0.00,Wunderground v.1.15,2013-08-29 08:10:00,
2013-08-29 03:15:00,74.6,72.4,29.85,SE,144,0.0,0.0,93,0.00,,,0.00,Wunderground v.1.15,2013-08-29 08:15:00,
2013-08-29 03:25:00,74.7,72.9,29.85,SSE,148,0.0,0.0,94,0.00,,,0.00,Wunderground v.1.15,2013-08-29 08:25:00,
2013-08-29 03:30:00,74.7,72.9,29.85,SSE,148,0.0,0.0,94,0.00,,,0.00,Wunderground v.1.15,2013-08-29 08:30:00,
2013-08-29 03:35:00,74.7,72.9,29.85,SSE,157,0.0,0.0,94,0.00,,,0.00,Wunderground v.1.15,2013-08-29 08:35:00,
2013-08-29 03:45:00,74.7,73.2,29.85,SSE,161,0.0,0.0,95,0.00,,,0.00,Wunderground v.1.15,2013-08-29 08:45:00,
2013-08-29 03:50:00,74.9,73.4,29.85,SSE,164,0.0,0.0,95,0.00,,,0.00,Wunderground v.1.15,2013-08-29 08:50:00,
2013-08-29 03:55:00,74.9,73.7,29.85,SSE,161,0.0,0.0,96,0.00,,,0.00,Wunderground v.1.15,2013-08-29 08:55:00,
2013-08-29 04:00:00,75.3,74.1,29.84,SSE,167,0.0,0.0,96,0.00,,,0.00,Wunderground v.1.15,2013-08-29 09:00:00,
2013-08-29 04:10:00,75.4,74.2,29.84,SSE,165,0.0,0.0,96,0.00,,,0.00,Wunderground v.1.15,2013-08-29 09:10:00,
2013-08-29 04:20:00,75.6,74.7,29.84,SSE,168,0.0,0.0,97,0.00,,,0.00,Wunderground v.1.15,2013-08-29 09:20:00,
2013-08-29 04:25:00,75.8,74.9,29.84,SSE,157,0.0,0.0,97,0.00,,,0.00,Wunderground v.1.15,2013-08-29 09:25:00,
2013-08-29 04:30:00,76.0,75.4,29.83,SSE,161,0.0,0.0,98,0.00,,,0.00,Wunderground v.1.15,2013-08-29 09:30:00,
2013-08-29 04:35:00,76.1,75.5,29.83,SSE,158,0.0,0.0,98,0.00,,,0.00,Wunderground v.1.15,2013-08-29 09:35:00,
2013-08-29 04:40:00,76.1,75.5,29.83,South,175,0.0,0.0,98,0.00,,,0.00,Wunderground v.1.15,2013-08-29 09:40:00,
2013-08-29 04:45:00,76.3,76.0,29.83,SSE,161,0.0,0.0,99,0.00,,,0.00,Wunderground v.1.15,2013-08-29 09:45:00,
2013-08-29 04:50:00,76.3,76.0,29.83,SSE,167,0.0,0.0,99,0.00,,,0.00,Wunderground v.1.15,2013-08-29 09:50:00,
2013-08-29 04:55:00,76.3,76.0,29.83,SSE,165,0.0,0.0,99,0.00,,,0.00,Wunderground v.1.15,2013-08-29 09:55:00,
2013-08-29 05:05:00,76.3,76.0,29.82,SSE,158,0.0,0.0,99,0.00,,,0.00,Wunderground v.1.15,2013-08-29 10:05:00,
2013-08-29 05:10:00,76.3,76.3,29.82,SSE,164,0.0,0.0,100,0.00,,,0.00,Wunderground v.1.15,2013-08-29 10:10:00,
2013-08-29 05:15:00,76.3,76.3,29.82,SSE,155,0.0,0.0,100,0.00,,,0.00,Wunderground v.1.15,2013-08-29 10:15:00,
2013-08-29 05:25:00,76.3,76.3,29.82,South,189,0.0,0.0,100,0.00,,,0.00,Wunderground v.1.15,2013-08-29 10:25:00,
2013-08-29 05:30:00,76.3,76.3,29.83,SSE,168,0.0,0.0,100,0.00,,,0.00,Wunderground v.1.15,2013-08-29 10:30:00,
2013-08-29 05:35:00,76.3,76.3,29.83,South,171,0.0,0.0,100,0.00,,,0.00,Wunderground v.1.15,2013-08-29 10:35:00,
2013-08-29 05:45:00,76.3,76.3,29.83,SSE,164,0.0,0.0,100,0.00,,,0.00,Wunderground v.1.15,2013-08-29 10:45:00,
2013-08-29 05:50:00,76.3,76.3,29.83,SSE,167,0.0,0.0,100,0.00,,,0.00,Wunderground v.1.15,2013-08-29 10:50:00,
2013-08-29 05:55:00,76.3,76.3,29.83,SSE,167,0.0,0.0,100,0.00,,,0.00,Wunderground v.1.15,2013-08-29 10:55:00,
2013-08-29 06:00:00,76.3,76.3,29.83,SSE,157,0.0,0.0,100,0.00,,,0.00,Wunderground v.1.15,2013-08-29 11:00:00,
2013-08-29 06:05:00,76.3,76.3,29.83,SSE,162,0.0,0.0,100,0.00,,,0.00,Wunderground v.1.15,2013-08-29 11:05:00,
2013-08-29 06:10:00,76.5,76.5,29.83,South,169,0.0,0.0,100,0.00,,,0.00,Wunderground v.1.15,2013-08-29 11:10:00,
2013-08-29 06:15:00,76.5,76.5,29.83,SE,137,0.0,0.0,100,0.00,,,0.00,Wunderground v.1.15,2013-08-29 11:15:00,
2013-08-29 06:25:00,76.5,76.5,29.83,SSE,158,0.0,0.0,100,0.00,,,0.00,Wunderground v.1.15,2013-08-29 11:25:00,
2013-08-29 06:30:00,76.7,76.7,29.84,South,178,0.0,0.0,100,0.00,,,0.00,Wunderground v.1.15,2013-08-29 11:30:00,
2013-08-29 06:40:00,76.5,76.5,29.84,SSE,157,0.0,0.0,100,0.00,,,0.00,Wunderground v.1.15,2013-08-29 11:40:00,
2013-08-29 06:45:00,76.5,76.5,29.84,SSE,161,0.0,0.0,100,0.00,,,0.00,Wunderground v.1.15,2013-08-29 11:45:00,
2013-08-29 06:50:00,76.5,76.5,29.84,SSE,168,0.0,0.0,100,0.00,,,0.00,Wunderground v.1.15,2013-08-29 11:50:00,
2013-08-29 06:55:00,76.5,76.5,29.84,SSE,162,0.0,0.0,100,0.00,,,0.00,Wunderground v.1.15,2013-08-29 11:55:00,